Time,TemperatureF,DewpointF,PressureIn,WindDirection,WindDirectionDegrees,WindSpeedMPH,WindSpeedGustMPH,Humidity,HourlyPrecipIn,Conditions,Clouds,dailyrainin,SoftwareType,DateUTC
2013-03-22 00:00:00,18.1,15.7,30.07,ENE,64,0.0,0.0,90,0.00,,---,0.00,VWS V14.01,2013-03-22 04:00:00,
2013-03-22 00:05:00,18.0,15.8,30.07,ENE,64,0.0,0.0,91,0.00,,---,0.00,VWS V14.01,2013-03-22 04:05:00,
2013-03-22 00:10:00,18.0,15.8,30.07,ENE,64,0.0,0.0,91,0.00,,---,0.00,VWS V14.01,2013-03-22 04:10:00,
2013-03-22 00:15:00,18.6,16.4,30.07,ENE,64,0.0,0.0,91,0.00,,---,0.00,VWS V14.01,2013-03-22 04:15:00,
2013-03-22 00:20:00,19.0,16.8,30.07,ENE,64,0.0,0.0,91,0.00,,---,0.00,VWS V14.01,2013-03-22 04:20:00,
2013-03-22 00:25:00,19.3,16.9,30.07,ENE,64,0.0,0.0,90,0.00,,---,0.00,VWS V14.01,2013-03-22 04:25:00,
2013-03-22 00:30:00,19.4,16.7,30.07,ENE,64,0.0,0.0,89,0.00,,---,0.00,VWS V14.01,2013-03-22 04:30:00,
2013-03-22 00:35:00,19.6,16.9,30.07,ENE,64,0.0,0.0,89,0.00,,---,0.00,VWS V14.01,2013-03-22 04:35:00,
2013-03-22 00:40:00,19.6,16.6,30.07,ENE,63,0.0,0.0,88,0.00,,---,0.00,VWS V14.01,2013-03-22 04:40:00,
2013-03-22 00:45:00,19.5,16.5,30.07,ENE,63,0.0,0.0,88,0.00,,---,0.00,VWS V14.01,2013-03-22 04:45:00,
2013-03-22 00:50:00,19.4,16.7,30.07,ENE,64,0.0,0.0,89,0.00,,---,0.00,VWS V14.01,2013-03-22 04:50:00,
2013-03-22 00:55:00,19.3,16.6,30.07,ENE,64,0.0,0.0,89,0.00,,---,0.00,VWS V14.01,2013-03-22 04:55:00,
2013-03-22 01:00:00,19.0,16.0,30.07,ENE,64,0.0,0.0,88,0.00,,---,0.00,VWS V14.01,2013-03-22 05:00:00,
2013-03-22 01:05:00,18.6,15.6,30.07,ENE,64,0.0,0.0,88,0.00,,---,0.00,VWS V14.01,2013-03-22 05:05:00,
2013-03-22 01:10:00,18.2,15.2,30.06,ENE,64,0.0,0.0,88,0.00,,---,0.00,VWS V14.01,2013-03-22 05:10:00,
2013-03-22 01:15:00,17.8,14.9,30.06,ENE,63,0.0,0.0,88,0.00,,---,0.00,VWS V14.01,2013-03-22 05:15:00,
2013-03-22 01:20:00,17.4,14.2,30.06,ENE,63,0.0,0.0,87,0.00,,---,0.00,VWS V14.01,2013-03-22 05:20:00,
2013-03-22 01:25:00,17.0,13.8,30.07,ENE,64,0.0,0.0,87,0.00,,---,0.00,VWS V14.01,2013-03-22 05:25:00,
2013-03-22 01:30:00,16.9,14.0,30.07,ENE,64,0.0,0.0,88,0.00,,---,0.00,VWS V14.01,2013-03-22 05:30:00,
2013-03-22 01:35:00,16.8,14.1,30.07,ENE,64,0.0,0.0,89,0.00,,---,0.00,VWS V14.01,2013-03-22 05:35:00,
2013-03-22 01:40:00,16.6,13.9,30.07,ENE,64,0.0,0.0,89,0.00,,---,0.00,VWS V14.01,2013-03-22 05:40:00,
2013-03-22 01:45:00,16.4,13.7,30.07,ENE,64,0.0,0.0,89,0.00,,---,0.00,VWS V14.01,2013-03-22 05:45:00,
2013-03-22 01:50:00,16.4,14.0,30.07,ENE,64,0.0,0.0,90,0.00,,---,0.00,VWS V14.01,2013-03-22 05:50:00,
2013-03-22 01:55:00,16.2,13.8,30.06,ENE,63,0.0,0.0,90,0.00,,---,0.00,VWS V14.01,2013-03-22 05:55:00,
2013-03-22 02:00:00,15.9,13.5,30.06,ENE,64,0.0,0.0,90,0.00,,---,0.00,VWS V14.01,2013-03-22 06:00:00,
2013-03-22 02:05:00,15.7,13.3,30.07,ENE,64,0.0,0.0,90,0.00,,---,0.00,VWS V14.01,2013-03-22 06:05:00,
2013-03-22 02:10:00,15.4,13.0,30.06,ENE,64,0.0,0.0,90,0.00,,---,0.00,VWS V14.01,2013-03-22 06:10:00,
2013-03-22 02:15:00,15.2,12.8,30.06,ENE,64,0.0,0.0,90,0.00,,---,0.00,VWS V14.01,2013-03-22 06:15:00,
2013-03-22 02:20:00,15.1,12.7,30.07,ENE,64,0.0,0.0,90,0.00,,---,0.00,VWS V14.01,2013-03-22 06:20:00,
2013-03-22 02:25:00,15.1,12.9,30.07,ENE,64,0.0,0.0,91,0.00,,---,0.00,VWS V14.01,2013-03-22 06:25:00,
2013-03-22 02:30:00,15.6,13.7,30.07,ENE,64,0.0,0.0,92,0.00,,---,0.00,VWS V14.01,2013-03-22 06:30:00,
2013-03-22 02:35:00,15.9,14.0,30.07,ENE,63,0.0,0.0,92,0.00,,---,0.00,VWS V14.01,2013-03-22 06:35:00,
2013-03-22 02:40:00,16.0,14.1,30.07,ENE,64,0.0,0.0,92,0.00,,---,0.00,VWS V14.01,2013-03-22 06:40:00,
2013-03-22 02:45:00,15.9,14.0,30.07,ENE,64,0.0,0.0,92,0.00,,---,0.00,VWS V14.01,2013-03-22 06:45:00,
2013-03-22 02:50:00,15.6,13.7,30.07,ENE,64,0.0,0.0,92,0.00,,---,0.00,VWS V14.01,2013-03-22 06:50:00,
2013-03-22 02:55:00,15.4,13.5,30.07,ENE,64,0.0,0.0,92,0.00,,---,0.00,VWS V14.01,2013-03-22 06:55:00,
2013-03-22 03:00:00,15.3,13.4,30.07,ENE,64,0.0,0.0,92,0.00,,---,0.00,VWS V14.01,2013-03-22 07:00:00,
2013-03-22 03:05:00,15.2,13.3,30.07,ENE,64,0.0,0.0,92,0.00,,---,0.00,VWS V14.01,2013-03-22 07:05:00,
2013-03-22 03:10:00,15.2,13.3,30.07,ENE,63,0.0,0.0,92,0.00,,---,0.00,VWS V14.01,2013-03-22 07:10:00,
2013-03-22 03:15:00,15.2,13.3,30.07,ENE,64,0.0,0.0,92,0.00,,---,0.00,VWS V14.01,2013-03-22 07:15:00,
2013-03-22 03:20:00,15.2,13.3,30.07,ENE,64,0.0,0.0,92,0.00,,---,0.00,VWS V14.01,2013-03-22 07:20:00,
2013-03-22 03:25:00,15.6,13.9,30.07,ENE,63,0.0,0.0,93,0.00,,---,0.00,VWS V14.01,2013-03-22 07:25:00,
2013-03-22 03:30:00,15.6,13.9,30.08,ENE,64,0.0,0.0,93,0.00,,---,0.00,VWS V14.01,2013-03-22 07:30:00,
2013-03-22 03:35:00,15.5,13.8,30.08,ENE,63,0.0,0.0,93,0.00,,---,0.00,VWS V14.01,2013-03-22 07:35:00,
2013-03-22 03:40:00,15.4,13.5,30.07,ENE,63,0.0,0.0,92,0.00,,---,0.00,VWS V14.01,2013-03-22 07:40:00,
2013-03-22 03:45:00,15.4,13.7,30.08,ENE,64,0.0,0.0,93,0.00,,---,0.00,VWS V14.01,2013-03-22 07:45:00,
2013-03-22 03:50:00,15.8,14.1,30.08,ENE,63,0.0,0.0,93,0.00,,---,0.00,VWS V14.01,2013-03-22 07:50:00,
2013-03-22 03:55:00,15.8,14.1,30.08,ENE,64,0.0,0.0,93,0.00,,---,0.00,VWS V14.01,2013-03-22 07:55:00,
2013-03-22 04:00:00,15.7,14.0,30.07,ENE,64,0.0,0.0,93,0.00,,---,0.00,VWS V14.01,2013-03-22 08:00:00,
2013-03-22 04:05:00,15.8,14.1,30.07,ENE,64,0.0,0.0,93,0.00,,---,0.00,VWS V14.01,2013-03-22 08:05:00,
2013-03-22 04:10:00,15.6,13.9,30.07,ENE,64,0.0,0.0,93,0.00,,---,0.00,VWS V14.01,2013-03-22 08:10:00,
2013-03-22 04:15:00,15.6,13.9,30.07,ENE,64,0.0,0.0,93,0.00,,---,0.00,VWS V14.01,2013-03-22 08:15:00,
2013-03-22 04:20:00,15.7,14.0,30.07,ENE,64,0.0,0.0,93,0.00,,---,0.00,VWS V14.01,2013-03-22 08:20:00,
2013-03-22 04:25:00,15.8,14.1,30.07,ENE,64,0.0,0.0,93,0.00,,---,0.00,VWS V14.01,2013-03-22 08:25:00,
2013-03-22 04:30:00,15.9,14.2,30.07,ENE,64,0.0,0.0,93,0.00,,---,0.00,VWS V14.01,2013-03-22 08:30:00,
2013-03-22 04:35:00,15.9,14.2,30.07,ENE,64,0.0,0.0,93,0.00,,---,0.00,VWS V14.01,2013-03-22 08:35:00,
2013-03-22 04:40:00,15.8,14.1,30.07,ENE,64,0.0,0.0,93,0.00,,---,0.00,VWS V14.01,2013-03-22 08:40:00,
2013-03-22 04:45:00,15.9,14.2,30.07,ENE,63,0.0,0.0,93,0.00,,---,0.00,VWS V14.01,2013-03-22 08:45:00,
2013-03-22 04:50:00,16.1,14.4,30.07,ENE,64,0.0,0.0,93,0.00,,---,0.00,VWS V14.01,2013-03-22 08:50:00,
2013-03-22 04:55:00,16.0,14.3,30.07,ENE,64,0.0,0.0,93,0.00,,---,0.00,VWS V14.01,2013-03-22 08:55:00,
2013-03-22 05:00:00,15.6,13.7,30.07,ENE,63,0.0,0.0,92,0.00,,---,0.00,VWS V14.01,2013-03-22 09:00:00,
2013-03-22 05:05:00,15.4,13.5,30.07,ENE,64,0.0,0.0,92,0.00,,---,0.00,VWS V14.01,2013-03-22 09:05:00,
2013-03-22 05:10:00,15.5,13.8,30.07,ENE,64,0.0,0.0,93,0.00,,---,0.00,VWS V14.01,2013-03-22 09:10:00,
2013-03-22 05:15:00,15.6,13.9,30.07,ENE,64,0.0,0.0,93,0.00,,---,0.00,VWS V14.01,2013-03-22 09:15:00,
2013-03-22 05:20:00,15.6,13.9,30.07,ENE,63,0.0,0.0,93,0.00,,---,0.00,VWS V14.01,2013-03-22 09:20:00,
2013-03-22 05:25:00,15.4,13.7,30.07,ENE,64,0.0,0.0,93,0.00,,---,0.00,VWS V14.01,2013-03-22 09:25:00,
2013-03-22 05:30:00,15.1,13.2,30.07,ENE,64,0.0,0.0,92,0.00,,---,0.00,VWS V14.01,2013-03-22 09:30:00,
2013-03-22 05:35:00,14.7,12.8,30.07,ENE,64,0.0,0.0,92,0.00,,---,0.00,VWS V14.01,2013-03-22 09:35:00,
2013-03-22 05:40:00,14.3,12.4,30.07,ENE,63,0.0,0.0,92,0.00,,---,0.00,VWS V14.01,2013-03-22 09:40:00,
2013-03-22 05:45:00,14.2,12.3,30.08,ENE,63,0.0,0.0,92,0.00,,---,0.00,VWS V14.01,2013-03-22 09:45:00,
2013-03-22 05:50:00,14.3,12.6,30.08,ENE,64,0.0,0.0,93,0.00,,---,0.00,VWS V14.01,2013-03-22 09:50:00,
2013-03-22 05:55:00,14.5,12.9,30.08,ENE,64,0.0,0.0,93,0.00,,---,0.00,VWS V14.01,2013-03-22 09:55:00,
2013-03-22 06:00:00,14.4,12.8,30.08,ENE,64,0.0,0.0,93,0.00,,---,0.00,VWS V14.01,2013-03-22 10:00:00,
2013-03-22 06:05:00,14.6,12.9,30.08,ENE,64,0.0,0.0,93,0.00,,---,0.00,VWS V14.01,2013-03-22 10:05:00,
2013-03-22 06:10:00,14.8,13.1,30.08,ENE,63,0.0,0.0,93,0.00,,---,0.00,VWS V14.01,2013-03-22 10:10:00,
2013-03-22 06:15:00,14.7,13.1,30.08,ENE,63,0.0,0.0,93,0.00,,---,0.00,VWS V14.01,2013-03-22 10:15:00,
2013-03-22 06:20:00,14.8,13.1,30.08,ENE,63,0.0,0.0,93,0.00,,---,0.00,VWS V14.01,2013-03-22 10:20:00,
2013-03-22 06:25:00,15.0,13.3,30.08,ENE,64,0.0,0.0,93,0.00,,---,0.00,VWS V14.01,2013-03-22 10:25:00,
2013-03-22 06:30:00,15.2,13.5,30.08,ENE,64,0.0,0.0,93,0.00,,---,0.00,VWS V14.01,2013-03-22 10:30:00,
2013-03-22 06:35:00,15.1,13.4,30.08,ENE,64,0.0,0.0,93,0.00,,---,0.00,VWS V14.01,2013-03-22 10:35:00,
2013-03-22 06:40:00,15.1,13.4,30.08,ENE,63,0.0,0.0,93,0.00,,---,0.00,VWS V14.01,2013-03-22 10:40:00,
2013-03-22 06:45:00,15.0,13.3,30.08,ENE,64,0.0,0.0,93,0.00,,---,0.00,VWS V14.01,2013-03-22 10:45:00,
2013-03-22 06:50:00,15.0,13.3,30.08,ENE,63,0.0,0.0,93,0.00,,---,0.00,VWS V14.01,2013-03-22 10:50:00,
2013-03-22 06:55:00,15.0,13.3,30.08,ENE,64,0.0,0.0,93,0.00,,---,0.00,VWS V14.01,2013-03-22 10:55:00,
2013-03-22 07:00:00,14.8,13.1,30.09,ENE,64,0.0,0.0,93,0.00,,---,0.00,VWS V14.01,2013-03-22 11:00:00,
2013-03-22 07:05:00,14.7,13.1,30.09,ENE,64,0.0,0.0,93,0.00,,---,0.00,VWS V14.01,2013-03-22 11:05:00,
2013-03-22 07:10:00,15.0,13.3,30.09,ENE,63,0.0,0.0,93,0.00,,---,0.00,VWS V14.01,2013-03-22 11:10:00,
2013-03-22 07:15:00,15.2,13.5,30.09,ENE,63,0.0,0.0,93,0.00,,---,0.00,VWS V14.01,2013-03-22 11:15:00,
2013-03-22 07:20:00,15.2,13.5,30.09,ENE,64,0.0,0.0,93,0.00,,---,0.00,VWS V14.01,2013-03-22 11:20:00,
2013-03-22 07:25:00,15.0,13.3,30.09,ENE,64,0.0,0.0,93,0.00,,---,0.00,VWS V14.01,2013-03-22 11:25:00,
2013-03-22 07:30:00,15.1,13.4,30.09,ENE,63,0.0,0.0,93,0.00,,---,0.00,VWS V14.01,2013-03-22 11:30:00,
2013-03-22 07:35:00,15.0,13.3,30.09,ENE,64,0.0,0.0,93,0.00,,---,0.00,VWS V14.01,2013-03-22 11:35:00,
2013-03-22 07:40:00,15.1,13.4,30.10,ENE,64,0.0,0.0,93,0.00,,---,0.00,VWS V14.01,2013-03-22 11:40:00,
2013-03-22 07:45:00,15.4,13.7,30.10,ENE,64,0.0,0.0,93,0.00,,---,0.00,VWS V14.01,2013-03-22 11:45:00,
2013-03-22 07:50:00,15.4,13.7,30.10,ENE,63,0.0,0.0,93,0.00,,---,0.00,VWS V14.01,2013-03-22 11:50:00,
2013-03-22 07:55:00,15.3,13.6,30.10,ENE,64,0.0,0.0,93,0.00,,---,0.00,VWS V14.01,2013-03-22 11:55:00,
2013-03-22 08:00:00,15.0,13.3,30.10,ENE,63,0.0,0.0,93,0.00,,---,0.00,VWS V14.01,2013-03-22 12:00:00,
2013-03-22 08:05:00,14.9,13.2,30.10,ENE,63,0.0,0.0,93,0.00,,---,0.00,VWS V14.01,2013-03-22 12:05:00,
2013-03-22 08:10:00,15.2,13.5,30.10,ENE,64,0.0,0.0,93,0.00,,---,0.00,VWS V14.01,2013-03-22 12:10:00,
2013-03-22 08:15:00,15.5,13.8,30.10,ENE,64,0.0,0.0,93,0.00,,---,0.00,VWS V14.01,2013-03-22 12:15:00,
2013-03-22 08:20:00,15.9,14.2,30.10,ENE,64,0.0,0.0,93,0.00,,---,0.00,VWS V14.01,2013-03-22 12:20:00,
2013-03-22 08:25:00,16.7,15.3,30.11,ENE,64,0.0,0.0,94,0.00,,---,0.00,VWS V14.01,2013-03-22 12:25:00,
2013-03-22 08:30:00,17.6,16.2,30.11,ENE,64,0.0,0.0,94,0.00,,---,0.00,VWS V14.01,2013-03-22 12:30:00,
2013-03-22 08:35:00,18.4,17.0,30.11,ENE,63,0.0,0.0,94,0.00,,---,0.00,VWS V14.01,2013-03-22 12:35:00,
2013-03-22 08:40:00,19.2,17.8,30.12,ENE,64,0.0,0.0,94,0.00,,---,0.00,VWS V14.01,2013-03-22 12:40:00,
2013-03-22 08:45:00,20.2,18.8,30.12,ENE,64,0.0,0.0,94,0.00,,---,0.00,VWS V14.01,2013-03-22 12:45:00,
2013-03-22 08:50:00,21.6,20.1,30.11,ENE,64,0.0,0.0,94,0.00,,---,0.00,VWS V14.01,2013-03-22 12:50:00,
2013-03-22 08:55:00,22.9,21.4,30.12,East,99,0.0,2.0,94,0.00,,---,0.00,VWS V14.01,2013-03-22 12:55:00,
2013-03-22 09:00:00,23.6,20.8,30.12,ESE,106,1.0,2.0,89,0.00,,---,0.00,VWS V14.01,2013-03-22 13:00:00,
2013-03-22 09:05:00,24.5,21.2,30.12,SSE,165,0.0,3.0,87,0.00,,---,0.00,VWS V14.01,2013-03-22 13:05:00,
2013-03-22 09:10:00,25.7,22.1,30.12,SE,139,0.0,3.0,86,0.00,,---,0.00,VWS V14.01,2013-03-22 13:10:00,
2013-03-22 09:15:00,26.8,22.3,30.12,East,79,1.0,3.0,83,0.00,,---,0.00,VWS V14.01,2013-03-22 13:15:00,
2013-03-22 09:20:00,27.0,21.4,30.12,SSE,166,0.0,3.0,79,0.00,,---,0.00,VWS V14.01,2013-03-22 13:20:00,
2013-03-22 09:25:00,27.5,21.2,30.13,SW,224,1.0,3.0,77,0.00,,---,0.00,VWS V14.01,2013-03-22 13:25:00,
2013-03-22 09:30:00,28.3,22.0,30.13,SE,138,0.0,1.0,77,0.00,,---,0.00,VWS V14.01,2013-03-22 13:30:00,
2013-03-22 09:35:00,29.2,22.3,30.12,South,191,0.0,3.0,75,0.00,,---,0.00,VWS V14.01,2013-03-22 13:35:00,
2013-03-22 09:40:00,30.1,22.2,30.13,SE,136,1.0,3.0,72,0.00,,---,0.00,VWS V14.01,2013-03-22 13:40:00,
2013-03-22 09:45:00,30.5,21.2,30.12,ESE,113,1.0,3.0,68,0.00,,---,0.00,VWS V14.01,2013-03-22 13:45:00,
2013-03-22 09:50:00,30.6,21.0,30.12,SSW,204,1.0,3.0,67,0.00,,---,0.00,VWS V14.01,2013-03-22 13:50:00,
2013-03-22 09:55:00,31.2,21.9,30.12,SE,136,1.0,3.0,68,0.00,,---,0.00,VWS V14.01,2013-03-22 13:55:00,
2013-03-22 10:00:00,31.6,20.8,30.12,SE,128,0.0,2.0,64,0.00,,---,0.00,VWS V14.01,2013-03-22 14:00:00,
2013-03-22 10:05:00,32.1,21.7,30.12,SSE,159,2.0,3.0,65,0.00,,---,0.00,VWS V14.01,2013-03-22 14:05:00,
2013-03-22 10:10:00,32.3,21.1,30.12,SW,225,2.0,3.0,63,0.00,,---,0.00,VWS V14.01,2013-03-22 14:10:00,
2013-03-22 10:15:00,32.6,21.4,30.12,ENE,63,1.0,3.0,63,0.00,,---,0.00,VWS V14.01,2013-03-22 14:15:00,
2013-03-22 10:20:00,32.5,21.7,30.12,ESE,105,1.0,4.0,64,0.00,,---,0.00,VWS V14.01,2013-03-22 14:20:00,
2013-03-22 10:25:00,32.7,21.5,30.12,SSE,148,2.0,5.0,63,0.00,,---,0.00,VWS V14.01,2013-03-22 14:25:00,
2013-03-22 10:30:00,33.2,22.0,30.12,ENE,70,3.0,4.0,63,0.00,,---,0.00,VWS V14.01,2013-03-22 14:30:00,
2013-03-22 10:35:00,33.0,20.2,30.12,East,90,1.0,6.0,59,0.00,,---,0.00,VWS V14.01,2013-03-22 14:35:00,
2013-03-22 10:40:00,33.5,21.1,30.12,NE,53,4.0,6.0,60,0.00,,---,0.00,VWS V14.01,2013-03-22 14:40:00,
2013-03-22 10:45:00,33.8,19.4,30.11,SE,141,3.0,8.0,55,0.00,,---,0.00,VWS V14.01,2013-03-22 14:45:00,
2013-03-22 10:50:00,34.2,19.7,30.11,SE,128,0.0,8.0,55,0.00,,---,0.00,VWS V14.01,2013-03-22 14:50:00,
2013-03-22 10:55:00,34.6,21.0,30.11,NE,56,2.0,8.0,57,0.00,,---,0.00,VWS V14.01,2013-03-22 14:55:00,
2013-03-22 11:00:00,34.8,18.5,30.11,NNE,29,5.0,6.0,51,0.00,,---,0.00,VWS V14.01,2013-03-22 15:00:00,
2013-03-22 11:05:00,34.5,19.1,30.11,SE,129,1.0,8.0,53,0.00,,---,0.00,VWS V14.01,2013-03-22 15:05:00,
2013-03-22 11:10:00,35.1,20.1,30.11,ENE,59,2.0,12.0,54,0.00,,---,0.00,VWS V14.01,2013-03-22 15:10:00,
2013-03-22 11:15:00,35.1,19.3,30.11,ENE,59,4.0,12.0,52,0.00,,---,0.00,VWS V14.01,2013-03-22 15:15:00,
2013-03-22 11:20:00,35.0,19.2,30.11,ENE,73,1.0,12.0,52,0.00,,---,0.00,VWS V14.01,2013-03-22 15:20:00,
2013-03-22 11:25:00,34.7,19.3,30.10,NE,45,3.0,12.0,53,0.00,,---,0.00,VWS V14.01,2013-03-22 15:25:00,
2013-03-22 11:30:00,34.7,19.3,30.10,East,86,4.0,6.0,53,0.00,,---,0.00,VWS V14.01,2013-03-22 15:30:00,
2013-03-22 11:35:00,34.9,20.0,30.10,NE,54,3.0,8.0,54,0.00,,---,0.00,VWS V14.01,2013-03-22 15:35:00,
2013-03-22 11:40:00,35.0,19.6,30.10,East,96,2.0,8.0,53,0.00,,---,0.00,VWS V14.01,2013-03-22 15:40:00,
2013-03-22 11:45:00,35.7,21.1,30.10,SE,139,2.0,8.0,55,0.00,,---,0.00,VWS V14.01,2013-03-22 15:45:00,
2013-03-22 11:50:00,36.6,20.2,30.10,NE,41,0.0,8.0,51,0.00,,---,0.00,VWS V14.01,2013-03-22 15:50:00,
2013-03-22 11:55:00,37.2,20.8,30.10,SSE,156,4.0,8.0,51,0.00,,---,0.00,VWS V14.01,2013-03-22 15:55:00,
2013-03-22 12:00:00,37.4,20.5,30.10,SW,225,1.0,6.0,50,0.00,,---,0.00,VWS V14.01,2013-03-22 16:00:00,
2013-03-22 12:05:00,38.0,19.6,30.10,SW,228,3.0,7.0,47,0.00,,---,0.00,VWS V14.01,2013-03-22 16:05:00,
2013-03-22 12:10:00,38.4,19.4,30.10,SSE,153,0.0,7.0,46,0.00,,---,0.00,VWS V14.01,2013-03-22 16:10:00,
2013-03-22 12:15:00,38.3,18.3,30.10,NE,40,3.0,7.0,44,0.00,,---,0.00,VWS V14.01,2013-03-22 16:15:00,
2013-03-22 12:20:00,38.3,19.9,30.10,ENE,77,3.0,7.0,47,0.00,,---,0.00,VWS V14.01,2013-03-22 16:20:00,
2013-03-22 12:25:00,38.0,19.6,30.10,NNW,333,1.0,9.0,47,0.00,,---,0.00,VWS V14.01,2013-03-22 16:25:00,
2013-03-22 12:30:00,38.1,20.2,30.10,NW,321,4.0,6.0,48,0.00,,---,0.00,VWS V14.01,2013-03-22 16:30:00,
2013-03-22 12:35:00,39.0,19.0,30.10,East,84,2.0,7.0,44,0.00,,---,0.00,VWS V14.01,2013-03-22 16:35:00,
2013-03-22 12:40:00,39.7,19.0,30.10,SSW,200,4.0,10.0,43,0.00,,---,0.00,VWS V14.01,2013-03-22 16:40:00,
2013-03-22 12:45:00,39.6,20.0,30.10,South,188,5.0,10.0,45,0.00,,---,0.00,VWS V14.01,2013-03-22 16:45:00,
2013-03-22 12:50:00,39.4,17.7,30.09,SW,224,1.0,10.0,41,0.00,,---,0.00,VWS V14.01,2013-03-22 16:50:00,
2013-03-22 12:55:00,39.3,18.1,30.09,ENE,67,7.0,10.0,42,0.00,,---,0.00,VWS V14.01,2013-03-22 16:55:00,
2013-03-22 13:00:00,39.7,18.5,30.09,SE,128,2.0,4.0,42,0.00,,---,0.00,VWS V14.01,2013-03-22 17:00:00,
2013-03-22 13:05:00,40.1,18.3,30.09,SE,124,2.0,5.0,41,0.00,,---,0.00,VWS V14.01,2013-03-22 17:05:00,
2013-03-22 13:10:00,40.4,19.1,30.08,SE,143,2.0,6.0,42,0.00,,---,0.00,VWS V14.01,2013-03-22 17:10:00,
2013-03-22 13:14:00,40.1,18.9,30.08,NW,312,0.0,6.0,42,0.00,,---,0.00,VWS V14.01,2013-03-22 17:14:00,
2013-03-22 13:19:00,40.4,19.1,30.08,SE,141,0.0,6.0,42,0.00,,---,0.00,VWS V14.01,2013-03-22 17:19:00,
2013-03-22 13:24:00,40.9,19.0,30.08,SSE,150,1.0,11.0,41,0.00,,---,0.00,VWS V14.01,2013-03-22 17:24:00,
2013-03-22 13:29:00,41.5,19.6,30.08,WSW,251,4.0,5.0,41,0.00,,---,0.00,VWS V14.01,2013-03-22 17:29:00,
2013-03-22 13:34:00,41.3,18.8,30.08,SE,134,0.0,5.0,40,0.00,,---,0.00,VWS V14.01,2013-03-22 17:34:00,
2013-03-22 13:39:00,41.8,20.4,30.08,East,95,4.0,5.0,42,0.00,,---,0.00,VWS V14.01,2013-03-22 17:39:00,
2013-03-22 13:44:00,42.4,20.4,30.08,ENE,66,0.0,7.0,41,0.00,,---,0.00,VWS V14.01,2013-03-22 17:44:00,
2013-03-22 13:49:00,42.3,18.5,30.08,East,98,3.0,7.0,38,0.00,,---,0.00,VWS V14.01,2013-03-22 17:49:00,
2013-03-22 13:54:00,41.7,19.2,30.07,West,277,2.0,7.0,40,0.00,,---,0.00,VWS V14.01,2013-03-22 17:54:00,
2013-03-22 13:59:00,42.0,18.9,30.07,SSW,195,1.0,4.0,39,0.00,,---,0.00,VWS V14.01,2013-03-22 17:59:00,
2013-03-22 14:04:00,41.6,18.5,30.07,ESE,119,2.0,5.0,39,0.00,,---,0.00,VWS V14.01,2013-03-22 18:04:00,
2013-03-22 14:09:00,41.2,18.1,30.07,NNE,29,2.0,5.0,39,0.00,,---,0.00,VWS V14.01,2013-03-22 18:09:00,
2013-03-22 14:14:00,41.0,19.7,30.07,SE,145,3.0,5.0,42,0.00,,---,0.00,VWS V14.01,2013-03-22 18:14:00,
2013-03-22 14:19:00,41.6,20.8,30.06,ESE,110,1.0,6.0,43,0.00,,---,0.00,VWS V14.01,2013-03-22 18:19:00,
2013-03-22 14:24:00,42.8,20.8,30.06,South,179,3.0,7.0,41,0.00,,---,0.00,VWS V14.01,2013-03-22 18:24:00,
2013-03-22 14:29:00,43.2,21.1,30.06,ENE,72,7.0,9.0,41,0.00,,---,0.00,VWS V14.01,2013-03-22 18:29:00,
2013-03-22 14:34:00,42.4,20.4,30.06,SW,232,3.0,9.0,41,0.00,,---,0.00,VWS V14.01,2013-03-22 18:34:00,
2013-03-22 14:39:00,42.7,20.1,30.06,East,93,6.0,9.0,40,0.00,,---,0.00,VWS V14.01,2013-03-22 18:39:00,
2013-03-22 14:44:00,43.2,21.7,30.05,SW,235,5.0,9.0,42,0.00,,---,0.00,VWS V14.01,2013-03-22 18:44:00,
2013-03-22 14:49:00,43.1,19.8,30.05,SSW,203,4.0,9.0,39,0.00,,---,0.00,VWS V14.01,2013-03-22 18:49:00,
2013-03-22 14:54:00,42.8,20.2,30.05,South,174,3.0,9.0,40,0.00,,---,0.00,VWS V14.01,2013-03-22 18:54:00,
2013-03-22 14:59:00,42.8,19.0,30.05,West,280,0.0,2.0,38,0.00,,---,0.00,VWS V14.01,2013-03-22 18:59:00,
2013-03-22 15:04:00,42.7,19.5,30.05,SSE,148,2.0,8.0,39,0.00,,---,0.00,VWS V14.01,2013-03-22 19:04:00,
2013-03-22 15:09:00,42.7,20.7,30.04,SSW,212,3.0,9.0,41,0.00,,---,0.00,VWS V14.01,2013-03-22 19:09:00,
2013-03-22 15:14:00,42.9,19.1,30.04,NW,319,1.0,10.0,38,0.00,,---,0.00,VWS V14.01,2013-03-22 19:14:00,
2013-03-22 15:19:00,42.7,20.7,30.04,SE,125,2.0,10.0,41,0.00,,---,0.00,VWS V14.01,2013-03-22 19:19:00,
2013-03-22 15:24:00,42.9,19.1,30.04,SE,143,2.0,10.0,38,0.00,,---,0.00,VWS V14.01,2013-03-22 19:24:00,
2013-03-22 15:29:00,42.6,18.2,30.04,WSW,240,2.0,8.0,37,0.00,,---,0.00,VWS V14.01,2013-03-22 19:29:00,
2013-03-22 15:34:00,42.3,18.5,30.04,SSW,195,5.0,8.0,38,0.00,,---,0.00,VWS V14.01,2013-03-22 19:34:00,
2013-03-22 15:39:00,42.4,19.2,30.04,SSW,209,1.0,8.0,39,0.00,,---,0.00,VWS V14.01,2013-03-22 19:39:00,
2013-03-22 15:44:00,42.6,18.8,30.04,South,181,1.0,8.0,38,0.00,,---,0.00,VWS V14.01,2013-03-22 19:44:00,
2013-03-22 15:49:00,42.6,18.8,30.04,WSW,239,5.0,8.0,38,0.00,,---,0.00,VWS V14.01,2013-03-22 19:49:00,
2013-03-22 15:54:00,42.5,18.7,30.04,WSW,241,4.0,8.0,38,0.00,,---,0.00,VWS V14.01,2013-03-22 19:54:00,
2013-03-22 15:59:00,42.3,19.1,30.04,SW,223,4.0,6.0,39,0.00,,---,0.00,VWS V14.01,2013-03-22 19:59:00,
2013-03-22 16:04:00,42.0,18.9,30.03,WSW,240,1.0,6.0,39,0.00,,---,0.00,VWS V14.01,2013-03-22 20:04:00,
2013-03-22 16:09:00,41.9,18.8,30.04,SE,124,3.0,6.0,39,0.00,,---,0.00,VWS V14.01,2013-03-22 20:09:00,
2013-03-22 16:14:00,41.7,19.2,30.03,WSW,244,2.0,6.0,40,0.00,,---,0.00,VWS V14.01,2013-03-22 20:14:00,
2013-03-22 16:19:00,41.8,19.3,30.03,West,260,1.0,6.0,40,0.00,,---,0.00,VWS V14.01,2013-03-22 20:19:00,
2013-03-22 16:24:00,42.2,19.0,30.03,SW,231,6.0,6.0,39,0.00,,---,0.00,VWS V14.01,2013-03-22 20:24:00,
2013-03-22 16:29:00,42.3,19.1,30.03,SW,224,2.0,5.0,39,0.00,,---,0.00,VWS V14.01,2013-03-22 20:29:00,
2013-03-22 16:34:00,42.6,19.4,30.03,SW,219,2.0,5.0,39,0.00,,---,0.00,VWS V14.01,2013-03-22 20:34:00,
2013-03-22 16:39:00,42.9,19.1,30.03,WSW,245,5.0,5.0,38,0.00,,---,0.00,VWS V14.01,2013-03-22 20:39:00,
2013-03-22 16:44:00,42.7,18.3,30.03,SSW,212,2.0,6.0,37,0.00,,---,0.00,VWS V14.01,2013-03-22 20:44:00,
2013-03-22 16:49:00,42.7,18.3,30.02,WSW,241,4.0,7.0,37,0.00,,---,0.00,VWS V14.01,2013-03-22 20:49:00,
2013-03-22 16:54:00,42.6,20.0,30.02,WSW,245,1.0,7.0,40,0.00,,---,0.00,VWS V14.01,2013-03-22 20:54:00,
2013-03-22 16:59:00,42.7,19.5,30.02,SE,127,1.0,2.0,39,0.00,,---,0.00,VWS V14.01,2013-03-22 20:59:00,
2013-03-22 17:04:00,42.9,19.1,30.02,South,179,5.0,5.0,38,0.00,,---,0.00,VWS V14.01,2013-03-22 21:04:00,
2013-03-22 17:09:00,42.7,18.9,30.02,SW,228,2.0,6.0,38,0.00,,---,0.00,VWS V14.01,2013-03-22 21:09:00,
2013-03-22 17:14:00,42.5,18.1,30.02,WSW,249,1.0,6.0,37,0.00,,---,0.00,VWS V14.01,2013-03-22 21:14:00,
2013-03-22 17:19:00,42.4,18.6,30.02,South,172,1.0,6.0,38,0.00,,---,0.00,VWS V14.01,2013-03-22 21:19:00,
2013-03-22 17:24:00,42.3,18.5,30.02,SSE,153,1.0,6.0,38,0.00,,---,0.00,VWS V14.01,2013-03-22 21:24:00,
2013-03-22 17:29:00,42.3,17.9,30.02,West,271,0.0,3.0,37,0.00,,---,0.00,VWS V14.01,2013-03-22 21:29:00,
2013-03-22 17:34:00,42.1,17.7,30.02,South,191,3.0,6.0,37,0.00,,---,0.00,VWS V14.01,2013-03-22 21:34:00,
2013-03-22 17:39:00,42.1,18.3,30.02,ESE,113,1.0,6.0,38,0.00,,---,0.00,VWS V14.01,2013-03-22 21:39:00,
2013-03-22 17:44:00,42.1,19.0,30.02,SSW,205,2.0,6.0,39,0.00,,---,0.00,VWS V14.01,2013-03-22 21:44:00,
2013-03-22 17:49:00,42.1,18.3,30.02,SW,214,4.0,6.0,38,0.00,,---,0.00,VWS V14.01,2013-03-22 21:49:00,
2013-03-22 17:54:00,41.9,18.2,30.02,SSW,195,3.0,6.0,38,0.00,,---,0.00,VWS V14.01,2013-03-22 21:54:00,
2013-03-22 17:59:00,41.9,19.4,30.02,SW,220,2.0,4.0,40,0.00,,---,0.00,VWS V14.01,2013-03-22 21:59:00,
2013-03-22 18:04:00,41.9,18.8,30.02,SW,223,2.0,4.0,39,0.00,,---,0.00,VWS V14.01,2013-03-22 22:04:00,
2013-03-22 18:09:00,41.8,18.7,30.03,SE,124,1.0,4.0,39,0.00,,---,0.00,VWS V14.01,2013-03-22 22:09:00,
2013-03-22 18:14:00,41.7,19.2,30.03,SW,218,4.0,4.0,40,0.00,,---,0.00,VWS V14.01,2013-03-22 22:14:00,
2013-03-22 18:19:00,41.6,19.7,30.03,WSW,249,2.0,4.0,41,0.00,,---,0.00,VWS V14.01,2013-03-22 22:19:00,
2013-03-22 18:24:00,41.6,19.1,30.03,SW,230,1.0,4.0,40,0.00,,---,0.00,VWS V14.01,2013-03-22 22:24:00,
2013-03-22 18:29:00,41.6,20.2,30.03,South,179,1.0,3.0,42,0.00,,---,0.00,VWS V14.01,2013-03-22 22:29:00,
2013-03-22 18:34:00,41.5,20.1,30.03,SW,215,1.0,5.0,42,0.00,,---,0.00,VWS V14.01,2013-03-22 22:34:00,
2013-03-22 18:39:00,41.3,20.5,30.03,SW,223,2.0,5.0,43,0.00,,---,0.00,VWS V14.01,2013-03-22 22:39:00,
2013-03-22 18:44:00,41.1,20.9,30.03,SW,217,3.0,5.0,44,0.00,,---,0.00,VWS V14.01,2013-03-22 22:44:00,
2013-03-22 18:49:00,40.9,20.7,30.03,WSW,251,2.0,5.0,44,0.00,,---,0.00,VWS V14.01,2013-03-22 22:49:00,
2013-03-22 18:54:00,40.7,20.5,30.03,West,264,1.0,5.0,44,0.00,,---,0.00,VWS V14.01,2013-03-22 22:54:00,
2013-03-22 18:59:00,40.6,20.4,30.03,SW,221,2.0,2.0,44,0.00,,---,0.00,VWS V14.01,2013-03-22 22:59:00,
2013-03-22 19:04:00,40.5,20.3,30.03,WSW,257,2.0,4.0,44,0.00,,---,0.00,VWS V14.01,2013-03-22 23:04:00,
2013-03-22 19:09:00,40.4,20.2,30.03,WSW,255,1.0,4.0,44,0.00,,---,0.00,VWS V14.01,2013-03-22 23:09:00,
2013-03-22 19:14:00,40.2,20.0,30.04,SW,236,2.0,4.0,44,0.00,,---,0.00,VWS V14.01,2013-03-22 23:14:00,
2013-03-22 19:19:00,40.1,20.5,30.04,SW,224,2.0,4.0,45,0.00,,---,0.00,VWS V14.01,2013-03-22 23:19:00,
2013-03-22 19:24:00,39.9,20.3,30.04,SW,228,2.0,4.0,45,0.00,,---,0.00,VWS V14.01,2013-03-22 23:24:00,
2013-03-22 19:29:00,39.7,20.6,30.04,SW,235,0.0,2.0,46,0.00,,---,0.00,VWS V14.01,2013-03-22 23:29:00,
2013-03-22 19:34:00,39.6,20.5,30.04,SW,215,0.0,2.0,46,0.00,,---,0.00,VWS V14.01,2013-03-22 23:34:00,
2013-03-22 19:39:00,39.5,21.0,30.04,SW,229,1.0,2.0,47,0.00,,---,0.00,VWS V14.01,2013-03-22 23:39:00,
2013-03-22 19:44:00,39.3,20.3,30.04,SW,232,1.0,2.0,46,0.00,,---,0.00,VWS V14.01,2013-03-22 23:44:00,
2013-03-22 19:49:00,39.2,20.2,30.04,SW,218,1.0,3.0,46,0.00,,---,0.00,VWS V14.01,2013-03-22 23:49:00,
2013-03-22 19:54:00,39.1,20.6,30.04,SSW,212,1.0,3.0,47,0.00,,---,0.00,VWS V14.01,2013-03-22 23:54:00,
2013-03-22 19:59:00,38.9,20.9,30.05,SW,229,1.0,2.0,48,0.00,,---,0.00,VWS V14.01,2013-03-22 23:59:00,
2013-03-22 20:04:00,38.8,20.8,30.04,SW,232,0.0,3.0,48,0.00,,---,0.00,VWS V14.01,2013-03-23 00:04:00,
2013-03-22 20:09:00,38.7,20.2,30.04,SW,218,1.0,4.0,47,0.00,,---,0.00,VWS V14.01,2013-03-23 00:09:00,
2013-03-22 20:14:00,38.6,20.1,30.05,SW,224,1.0,4.0,47,0.00,,---,0.00,VWS V14.01,2013-03-23 00:14:00,
2013-03-22 20:19:00,38.5,21.0,30.05,SW,221,1.0,4.0,49,0.00,,---,0.00,VWS V14.01,2013-03-23 00:19:00,
2013-03-22 20:24:00,38.4,20.4,30.05,SW,221,0.0,4.0,48,0.00,,---,0.00,VWS V14.01,2013-03-23 00:24:00,
2013-03-22 20:29:00,38.2,20.2,30.05,SW,221,0.0,1.0,48,0.00,,---,0.00,VWS V14.01,2013-03-23 00:29:00,
2013-03-22 20:34:00,38.1,19.7,30.05,WSW,249,0.0,2.0,47,0.00,,---,0.00,VWS V14.01,2013-03-23 00:34:00,
2013-03-22 20:39:00,38.1,20.2,30.05,WSW,240,0.0,2.0,48,0.00,,---,0.00,VWS V14.01,2013-03-23 00:39:00,
2013-03-22 20:44:00,38.0,20.1,30.05,SW,235,0.0,2.0,48,0.00,,---,0.00,VWS V14.01,2013-03-23 00:44:00,
2013-03-22 20:49:00,38.0,20.5,30.05,SW,229,0.0,2.0,49,0.00,,---,0.00,VWS V14.01,2013-03-23 00:49:00,
2013-03-22 20:54:00,37.9,20.5,30.05,SW,214,0.0,2.0,49,0.00,,---,0.00,VWS V14.01,2013-03-23 00:54:00,
2013-03-22 20:59:00,37.8,21.8,30.05,SW,214,0.0,0.0,52,0.00,,---,0.00,VWS V14.01,2013-03-23 00:59:00,
2013-03-22 21:04:00,37.7,22.1,30.05,SW,214,0.0,0.0,53,0.00,,---,0.00,VWS V14.01,2013-03-23 01:04:00,
2013-03-22 21:09:00,37.6,24.2,30.05,SW,214,0.0,0.0,58,0.00,,---,0.00,VWS V14.01,2013-03-23 01:09:00,
2013-03-22 21:14:00,37.5,24.1,30.06,SW,214,0.0,0.0,58,0.00,,---,0.00,VWS V14.01,2013-03-23 01:14:00,
2013-03-22 21:19:00,37.3,23.1,30.05,SW,214,0.0,0.0,56,0.00,,---,0.00,VWS V14.01,2013-03-23 01:19:00,
2013-03-22 21:24:00,37.2,25.0,30.05,SW,214,0.0,0.0,61,0.00,,---,0.00,VWS V14.01,2013-03-23 01:24:00,
2013-03-22 21:29:00,37.1,26.4,30.05,SW,214,0.0,0.0,65,0.00,,---,0.00,VWS V14.01,2013-03-23 01:29:00,
2013-03-22 21:34:00,36.9,23.5,30.05,SW,214,0.0,0.0,58,0.00,,---,0.00,VWS V14.01,2013-03-23 01:34:00,
2013-03-22 21:39:00,36.8,24.2,30.05,SW,214,0.0,0.0,60,0.00,,---,0.00,VWS V14.01,2013-03-23 01:39:00,
2013-03-22 21:44:00,36.7,24.5,30.05,SW,214,0.0,0.0,61,0.00,,---,0.00,VWS V14.01,2013-03-23 01:44:00,
2013-03-22 21:49:00,36.7,25.3,30.05,SW,214,0.0,0.0,63,0.00,,---,0.00,VWS V14.01,2013-03-23 01:49:00,
2013-03-22 21:54:00,36.5,23.5,30.05,SW,214,0.0,0.0,59,0.00,,---,0.00,VWS V14.01,2013-03-23 01:54:00,
2013-03-22 21:59:00,36.5,25.9,30.05,SSW,213,0.0,0.0,65,0.00,,---,0.00,VWS V14.01,2013-03-23 01:59:00,
2013-03-22 22:04:00,36.4,25.8,30.05,SW,214,0.0,0.0,65,0.00,,---,0.00,VWS V14.01,2013-03-23 02:04:00,
2013-03-22 22:09:00,36.4,25.8,30.04,SW,214,0.0,0.0,65,0.00,,---,0.00,VWS V14.01,2013-03-23 02:09:00,
2013-03-22 22:14:00,36.4,26.9,30.04,SW,214,0.0,0.0,68,0.00,,---,0.00,VWS V14.01,2013-03-23 02:14:00,
2013-03-22 22:19:00,36.3,27.1,30.05,SW,214,0.0,0.0,69,0.00,,---,0.00,VWS V14.01,2013-03-23 02:19:00,
2013-03-22 22:24:00,36.3,24.5,30.05,SW,214,0.0,0.0,62,0.00,,---,0.00,VWS V14.01,2013-03-23 02:24:00,
2013-03-22 22:29:00,36.3,23.4,30.06,SW,218,1.0,1.0,59,0.00,,---,0.00,VWS V14.01,2013-03-23 02:29:00,
2013-03-22 22:34:00,36.3,24.1,30.06,SW,217,0.0,1.0,61,0.00,,---,0.00,VWS V14.01,2013-03-23 02:34:00,
2013-03-22 22:39:00,36.2,25.6,30.06,SW,218,0.0,1.0,65,0.00,,---,0.00,VWS V14.01,2013-03-23 02:39:00,
2013-03-22 22:44:00,36.1,25.1,30.06,SW,218,0.0,1.0,64,0.00,,---,0.00,VWS V14.01,2013-03-23 02:44:00,
2013-03-22 22:49:00,36.0,24.6,30.07,SW,218,0.0,1.0,63,0.00,,---,0.00,VWS V14.01,2013-03-23 02:49:00,
2013-03-22 22:54:00,35.9,24.9,30.07,SW,218,0.0,1.0,64,0.00,,---,0.00,VWS V14.01,2013-03-23 02:54:00,
2013-03-22 22:59:00,35.9,25.7,30.06,SW,218,0.0,0.0,66,0.00,,---,0.00,VWS V14.01,2013-03-23 02:59:00,
2013-03-22 23:04:00,35.9,26.0,30.06,SW,218,0.0,0.0,67,0.00,,---,0.00,VWS V14.01,2013-03-23 03:04:00,
2013-03-22 23:09:00,35.9,25.3,30.05,SW,218,0.0,0.0,65,0.00,,---,0.00,VWS V14.01,2013-03-23 03:09:00,
2013-03-22 23:14:00,36.0,25.8,30.05,SW,218,0.0,1.0,66,0.00,,---,0.00,VWS V14.01,2013-03-23 03:14:00,
2013-03-22 23:19:00,35.9,25.7,30.05,SW,218,0.0,1.0,66,0.00,,---,0.00,VWS V14.01,2013-03-23 03:19:00,
2013-03-22 23:24:00,35.9,26.0,30.05,SW,218,0.0,1.0,67,0.00,,---,0.00,VWS V14.01,2013-03-23 03:24:00,
2013-03-22 23:29:00,35.8,27.0,30.04,SW,218,0.0,1.0,70,0.00,,---,0.00,VWS V14.01,2013-03-23 03:29:00,
2013-03-22 23:34:00,35.8,28.0,30.05,SW,218,0.0,1.0,73,0.00,,---,0.00,VWS V14.01,2013-03-23 03:34:00,
2013-03-22 23:39:00,35.6,24.6,30.04,SW,218,0.0,1.0,64,0.00,,---,0.00,VWS V14.01,2013-03-23 03:39:00,
2013-03-22 23:44:00,35.7,26.5,30.04,SW,218,0.0,1.0,69,0.00,,---,0.00,VWS V14.01,2013-03-23 03:44:00,
2013-03-22 23:49:00,35.8,27.0,30.05,SW,218,0.0,1.0,70,0.00,,---,0.00,VWS V14.01,2013-03-23 03:49:00,
2013-03-22 23:54:00,35.7,26.5,30.05,SW,218,0.0,1.0,69,0.00,,---,0.00,VWS V14.01,2013-03-23 03:54:00,
2013-03-22 23:59:00,35.7,27.6,30.05,SW,218,0.0,0.0,72,0.00,,---,0.00,VWS V14.01,2013-03-23 03:59:00,